Location: ???????
(55.4362°N, 38.1183°E)
Time: 13:42:34
(UTC+00:00)

N. Korean satellite - Pass Details

Date: 01 October 2021
Orbit: 450 x 495 km, 97.3° (Epoch: 23 October)

Event Time Altitude Azimuth Distance (km) Brightness Sun altitude
Rises 02:13:52 0° 21° (NNE) 2,544 10.7 -11.6°
Reaches altitude 10° 02:16:08 10° 33° (NNE) 1,668 9.9 -11.3°
Maximum altitude 02:19:17 29° 95° (E) 926 8.9 -10.8°
Drops below altitude 10° 02:22:28 10° 157° (SSE) 1,676 9.5 -10.4°
Sets 02:24:44 0° 169° (S) 2,558 10.3 -10.1°
